Regional Weather Roundup
Issued by NWS

Home | Current Version | Previous Version | Text Only | Print | Product List | Glossary On
Versions: 1 2 3 4 5 6 7 8 9 10 11 12 13 14 15 16 17 18 19 20 21 22 23 24 25 26 27
000
ASUS43 KMPX 101210
RWRMN
WEATHER ROUNDUP FOR MINNESOTA
NATIONAL WEATHER SERVICE TWIN CITIES/CHANHASSEN MN
700 AM CDT MON MAY 10 2021


NOTE: "FAIR" INDICATES FEW OR NO CLOUDS BELOW 12,000 FEET WITH NO
SIGNIFICANT WEATHER AND/OR OBSTRUCTIONS TO VISIBILITY. N/A MEANS
CURRENT SKY AND/OR WEATHER CONDITIONS ARE NOT AVAILABLE.

MNZ060>063-068>070-101300-
   Twin Cities Metro

CITY           SKY/WX    TMP DP  RH WIND       PRES   REMARKS
TWIN CITIES    CLOUDY    43  28  55 NE13G18   30.20R
6HR MIN TEMP:  42; 6HR MAX TEMP:  46;

ST PAUL        LGT RAIN  41  32  70 NE12      30.22R
CRYSTAL        LGT RAIN  41  30  65 CALM      30.20R
BLAINE         PTSUNNY   43  32  65 CALM      30.20S
LAKEVILLE      PTSUNNY   41  27  56 NE7       30.18R
EDEN PRAIRIE   CLOUDY    43  27  53 NE10      30.18R
6HR MIN TEMP:  42; 6HR MAX TEMP:  47;

SOUTH ST PAUL  PTSUNNY   43  28  54 N7        30.20R
$$
MNZ001>005-007-008-013>017-022>024-027-028-101300-
   Northwest Minnesota

CITY           SKY/WX    TMP DP  RH WIND       PRES   REMARKS
BEMIDJI        CLOUDY    36  26  67 CALM      30.26R
HALLOCK        CLOUDY    39  25  56 NE7       30.31R
ROSEAU           N/A     43 N/A N/A CALM      30.31R
WARROAD        MOSUNNY   43  34  70 CALM      30.31R
THIEF RVR FALL CLOUDY    36  23  59 NE6       30.29R
CROOKSTON      CLOUDY    37  25  60 CALM        N/A
FOSSTON        CLOUDY    36  23  60 NE5       30.27R
DETROIT LAKES  CLOUDY    39  27  60 NE7       30.24R
MOORHEAD       CLEAR     37  21  52 N7        30.26R
PARK RAPIDS    CLOUDY    39  25  57 N6        30.23R
MAHNOMEN       CLOUDY    36  27  69 NE5       30.26R
$$
MNZ006-009>011-018-025>026-101300-
   North Central Minnesota

CITY           SKY/WX    TMP DP  RH WIND       PRES   REMARKS
BAUDETTE       SUNNY     35  27  72 NE8       30.29R WCI  29
FLAG ISLAND    SUNNY     37  27  65 E5        30.30R
INTL FALLS     SUNNY     37  25  61 NE8       30.27R
6HR MIN TEMP:  35; 6HR MAX TEMP:  41;

WASKISH        CLOUDY    37  27  65 NE9       30.28R
BIG FORK       CLOUDY    27  25  93 CALM      30.30R
LONGVILLE      CLOUDY    39  27  60 N3        30.24R
GRAND RAPIDS   MOSUNNY   31  26  82 CALM      30.26R
CRANE LAKE     SUNNY     28  27  93 CALM      30.29R
ORR            SUNNY     32  25  74 CALM      30.24R
COOK           MOSUNNY   34  27  75 CALM      30.25R
WALKER         CLOUDY    37  26  63 N3        30.24R
$$
MNZ012-019>021-037-101300-
   Northeast Minnesota

CITY           SKY/WX    TMP DP  RH WIND       PRES   REMARKS
DULUTH         PTSUNNY   36  27  69 N3        30.21R
6HR MIN TEMP:  33; 6HR MAX TEMP:  36;

ELY            MOSUNNY   34  25  69 N3        30.23S
HIBBING        CLOUDY    35  27  72 N5        30.23R WCI  31
EVELETH        CLOUDY    37  27  67 NE8       30.24R
DULUTH HARBOR  CLOUDY    41  28  60 NE7       30.24R
TWO HARBORS    CLOUDY    37  27  65 N5        30.22R
SILVER BAY     PTSUNNY   39  25  56 N7        30.22R
GRAND MARAIS     N/A     38  26  62 N7        30.22R
G MARAIS ARPRT MOSUNNY   34  25  69 NW6       30.19R WCI  29
$$
MNZ029>031-032-039>041-046>048-054>057-064-101300-
   West Central Minnesota

CITY           SKY/WX    TMP DP  RH WIND       PRES   REMARKS
FERGUS FALLS   CLOUDY    39  28  65 E3        30.20R
WHEATON        CLEAR     37  27  65 NE6       30.24R
MORRIS         PTCLDY    39  25  56 NE7       30.21R
ALEXANDRIA     CLOUDY    39  29  67 E9        30.21R
ELBOW LAKE     CLOUDY    40  31  70 NE6       30.22R
WADENA         CLOUDY    37  30  75 NE3       30.23R
GLENWOOD       MOCLDY    39  28  65 NE10      30.20R
APPLETON       MOCLDY    43  27  52 NE8       30.19R
BENSON         CLOUDY    39  28  65 E5        30.21R
ORTONVILLE       N/A     39  28  65 NE3       30.20R
MADISON        PTCLDY    41  30  65 N7        30.20R
WILLMAR        FAIR      43  27  52 NE10      30.21R
$$
MNZ033>034-036-042>043-049>051-058-059-101300-
   Central Minnesota

CITY           SKY/WX    TMP DP  RH WIND       PRES   REMARKS
ST CLOUD       CLOUDY    40  28  62 NE6       30.21R
6HR MIN TEMP:  39; 6HR MAX TEMP:  41;

SAUK CENTRE    CLOUDY    39  29  66 NE7       30.21R
PAYNESVILLE    MOCLDY    41  32  70 NE8       30.20R
AITKIN         CLOUDY    32  30  93 CALM      30.23R
PINE RIVER     CLOUDY    39  28  65 CALM      30.26R
BRAINERD       CLOUDY    37  29  72 NE3       30.23R
STAPLES        CLOUDY    37  28  70 NE3       30.23R
LONG PRAIRIE   CLOUDY    37  30  75 NE5       30.22R
LITTLE FALLS   CLOUDY    37  27  65 N3        30.22R
CAMP RIPLEY    PTSUNNY   37  29  70 NE7       30.23R
LITCHFIELD     PTSUNNY   43  28  56 E10       30.18R
BUFFALO        CLOUDY    40  32  73 MISG      30.21R
MAPLE LAKE     CLOUDY    41  32  71 E9        30.21R
HUTCHINSON     CLOUDY    42  29  58 NE13      30.19R
$$
MNZ037-044-045-052-053-101300-
   East Central Minnesota

CITY           SKY/WX    TMP DP  RH WIND       PRES   REMARKS
PRINCETON      CLOUDY    41  30  65 NE3       30.22R
MORA           MOSUNNY   34  28  80 CALM      30.24R
CAMBRIDGE      PTSUNNY   43  28  56 N3        30.22R
RUSH CITY      MOSUNNY   36  29  76 N3        30.23R
MOOSE LAKE     CLOUDY    32  30  93 CALM      30.21R
CLOQUET        CLOUDY    34  27  75 N3        30.21R
$$
MNZ071>073-080-081-089-090-097-098-101300-
   Southwest Minnesota

CITY           SKY/WX    TMP DP  RH WIND       PRES   REMARKS
MONTEVIDEO     MOCLDY    39  27  60 E6        30.19R
GRANITE FALLS  PTCLDY    41  30  65 NE5       30.19R
CANBY          CLEAR     37  29  73 NW3       30.19R
MARSHALL       CLEAR     39  28  64 NE9       30.17R
REDWOOD FALLS  PTCLDY    41  27  57 E7        30.16R
OLIVIA         PTCLDY    41  28  60 NE9       30.16R
PIPESTONE      PTCLDY    39  30  70 N6        30.13R
WINDOM         MOCLDY    39  30  70 E5        30.11R
WORTHINGTON    PTCLDY    43  29  57 NW12      30.12R
JACKSON        CLOUDY    43  30  61 NE3       30.12S
TRACY          CLEAR     39  26  60 N9        30.15R
SLAYTON        PTCLDY    37  26  66 NW7       30.13R
$$
MNZ065>067-074>077-082>085-091>093-101300-
   South Central Minnesota

CITY           SKY/WX    TMP DP  RH WIND       PRES   REMARKS
MANKATO        PTSUNNY   43  27  53 NE16G23   30.14R
NEW ULM        PTCLDY    41  27  56 NE9       30.15R
ST JAMES       CLOUDY    41  28  60 E7        30.12S
FAIRMONT       PTCLDY    42  26  53 E9        30.12S
GLENCOE        CLOUDY    41  28  59 NE7       30.17R
FARIBAULT      PTSUNNY   43  28  56 N9        30.16R
OWATONNA       MOSUNNY   41  28  60 NE10      30.14S
WASECA         PTSUNNY   41  27  56 NE13G20   30.15R
ALBERT LEA     MOSUNNY   43  27  52 NE7       30.13R
$$
MNZ078>079-086>088-094>096-101300-
   Southeast Minnesota

CITY           SKY/WX    TMP DP  RH WIND       PRES   REMARKS
ROCHESTER      CLOUDY    40  26  57 N10       30.14R
6HR MIN TEMP:  39; 6HR MAX TEMP:  45;

RED WING       CLOUDY    41  27  56 NE6       30.18R
STANTON        CLOUDY    41  29  61 NE15      30.16S
DODGE CENTER   MOSUNNY   39  25  56 NE10      30.15R
WINONA         PTSUNNY   43  30  61 NE3       30.16R
AUSTIN         MOSUNNY   43  28  56 NE6       30.12S
PRESTON        MOSUNNY   40  31  69 N8        30.14R
$$
ABBREVIATIONS USED IN REMARKS
   TC - TEMPERATURES IN CELSIUS
  WCI - WIND CHILL INDEX
   HX - HEAT INDEX
  VSB - VISIBILITY
$$



USA.gov is the U.S. government's official web portal to all federal, state and local government web resources and services.